APRIZESAT 7

Last updated on Fri Dec 29 2023 00:03:29 GMT+0000 (Coordinated Universal Time)

1 39416U 13066A 23361.83624728 .00003019 00000+0 34318-3 0 9998 2 39416 97.6479 322.1716 0038250 319.3241 40.5120 14.86454740546921
UTC large
Height (km)
Speed (km/s)
/
Latitude / Longitude
Inclination (degrees)
Orbital Period (minutes)
Azimuth
Elevation
Range (km)
Doppler Factor

Next 0 passes for location: London (51.5072 / 0.1276)

Sorry there are no passes over London.